Weather in Ternovskiy

Russia / Voronezh Oblast     51°05′51″N   41°05′54″E
temp.,
°C
wind,
m/s
gust,
m/s
humid.,
%
clouds,
%
prec.,
mm/h
press.,
hPa
HPBL,
m
25 february, thu
thu2500:00−15ssw599494 0.1 1038333
03:00−14ssw6119496 0.5 1035364
06:00−12ssw71292100 0.3 1033408
09:00−10sw71292100 0.4 1030414
12:00−7sw81293100 0.3 1028431
15:00−4sw71294100 0.5 1024426
18:00−3sw91594100 0.7 1021387
21:00+1wsw81396100 1.1 1020348
26 february, fri
fri2600:00+1w61098100 0.1 1018255
03:00+1w61298100 0.3 1019315
06:00+1wnw51198100 0.2 1018293
09:00+1w5998100 0.5 1018270
12:00+2w612100100 0.0 1017330
15:00+2w71498100 0.0 1016393
18:00+2w81498100 0.0 1014505
21:00+2w61498100 0.4 1012412
27 february, sat
sat2700:00+2w71497100 0.1 1011425
03:00+1w61296100 0.1 1010471
06:00+1w61294100 0.0 1009500
09:00+1w61298100 0.1 1009527
12:00+1wnw61197100 0.1 1008694
15:00+1w7119598 0.1 1008640
18:00+1w7129799 0.1 1007593
21:000wnw61197100 0.2 1008594
28 february, sun
sun2800:000wnw61195100 0.1 1008447
03:000nw599899 0.3 1010522
06:00−3n579495 0.3 1011427
09:00−5n588496 0.3 1013537
12:00−5nnw588082 0.0 1015608
15:00−4nnw578285 0.0 1016625
18:00−5nnw5886100 0.1 1018631
21:00−5nnw5789100 0.1 1020649
1 march, mon
mon100:00−6n4691100 0.2 1022530
03:00−6nnw479395 0.3 1023493
06:00−7nnw5891100 0.1 1024503
09:00−7n588796 0.1 1027605
12:00−6n5781100 0.0 1028637
15:00−5nnw587998 0.0 1029733
18:00−6nnw259189 0.0 1029180
21:00−6nw249382 0.0 103095